Weather in Shikhazany

Russia / Chuvash Republic     55°33′41″N   47°23′01″E
temp.,
°C
wind,
m/s
gust,
m/s
humid.,
%
clouds,
%
prec.,
mm/h
press.,
hPa
HPBL,
m
24 may, tue
tue2400:00+1wsw3995100 0.0 1002335
03:000sw3996100 0.0 1003280
06:00+3ssw468392 0.0 1002452
09:00+5w6787100 0.2 1003757
12:00+7wsw5766100 0.3 10041350
15:00+6w5777100 0.7 1006994
18:00+5sw3479100 0.1 1007583
21:00+2wsw349571 0.2 100877
25 may, wed
wed2500:00+2nw228955 0.0 100849
03:000nw229426 0.0 100918
06:00+3nw358273 0.0 1009269
09:00+6nw557071 0.2 10091172
12:00+8nw666091 0.8 10101565
15:00+10nw5656100 1.4 10101648
18:00+8wnw4776100 1.2 1010589
21:00+3w499297 1.4 1012194
26 may, thu
thu2600:00+2wsw389614 0.0 1012175
03:00+3wsw499481 0.0 1012229
06:00+4wsw59875 0.0 1013322
09:00+9wsw56665 0.0 10121172
12:00+10sw7864100 0.6 10111492
15:00+10sw81075100 1.3 10111255
18:00+10ssw4980100 0.1 1009693
21:00+8s41292100 0.5 1008303
27 may, fri
fri2700:00+9s3896100 2.6 1006317
03:00+9s3798100 5.4 1005231
06:00+9sse81596100 3.3 1001606
09:00+11ssw71295100 5.6 999695
12:00+10ssw61194100 0.6 999804
15:00+10wsw61389100 1.2 1000691
18:00+11sw51094100 1.4 1001443
21:00+9sw499682 1.4 1002283
28 may, sat
sat2800:00+10wsw6119591 0.5 1004497
03:00+9wsw5109695 0.5 1005469
06:00+9ssw489392 0.0 1006298
09:00+13ssw6107494 0.0 1005823
12:00+12s71483100 0.8 1004816
15:00+12ssw51395100 4.8 1003736
18:00+12sw61391100 2.0 1004769
21:00+10ssw5119695 2.2 1006320